Weather History for PAJC - November, 2011

Change the Weather History Date:

Friday, November 18, 2011

  Actual Average Record
Temperature  
Mean Temperature 35 °F -  
Max Temperature 42 °F 38 °F 46 °F (2001)
Min Temperature 28 °F 32 °F 15 °F (2012)
Degree Days  
Heating Degree Days 30    
Moisture  
Dew Point 30 °F    
Average Humidity 70    
Maximum Humidity 93    
Minimum Humidity 53    
Precipitation  
Precipitation 0.00 in - - ()
Sea Level Pressure  
Sea Level Pressure 30.07 in    
Wind  
Wind Speed 12 mph (West)    
Max Wind Speed 31 mph    
Max Gust Speed 41 mph    
Visibility 9 miles    
Events      
Averages and records for this station are not official NWS values.
T = Trace of Precipitation, MM = Missing Value Source: NWS Daily Summary

Daily Weather History Graph

Daily Weather History Graph

Search for Another Location

Airport or City:

Trip Planner

Search our weather history database for the weather conditions in past years. The results will help you decide how hot, cold, wet, or windy it might be!

Date:

Astronomy

Nov. 18, 2011 Rise Set
Actual Time 9:17 AM AKST 5:18 PM AKST
Civil Twilight 8:34 AM AKST 6:02 PM AKST
Nautical Twilight 7:47 AM AKST 6:48 PM AKST
Astronomical Twilight 7:03 AM AKST 7:33 PM AKST
Moon 12:22 AM AKST (11/18) 2:24 PM AKST (11/18)
Length of Visible Light 9h 27m
Length of Day
8h 01m
Waning Gibbous, 47% of the Moon is Illuminated
Nov 18
Waning Gibbous
Nov 24
New
Dec 2
First Quarter
Dec 10
Full
Dec 17
Last Quarter

Hourly Weather History & Observations

Time (AKST) Temp. Windchill Dew Point Humidity Pressure Visibility Wind Dir Wind Speed Gust Speed Precip Events Conditions
12:16 AM 28.4 °F 24.6 °F 24.8 °F 86% 29.99 in 2.5 mi South 3.5 mph - N/A   Overcast
12:36 AM 28.4 °F 23.3 °F 24.8 °F 86% 29.98 in 3.0 mi South 4.6 mph - N/A   Overcast
12:56 AM 28.4 °F - 26.6 °F 93% 29.96 in 4.0 mi Calm Calm - N/A   Overcast
1:16 AM 30.2 °F - 26.6 °F 86% 29.95 in 8.0 mi Calm Calm - N/A   Overcast
1:36 AM 30.2 °F 26.7 °F 26.6 °F 86% 29.95 in 5.0 mi South 3.5 mph - N/A   Overcast
1:56 AM 30.2 °F - 26.6 °F 86% 29.95 in 10.0 mi Calm Calm - N/A   Overcast
2:16 AM 30.2 °F 26.7 °F 26.6 °F 86% 29.95 in 10.0 mi SSE 3.5 mph - N/A   Overcast
2:36 AM 30.2 °F 26.7 °F 28.4 °F 93% 29.95 in 5.0 mi SSE 3.5 mph - N/A   Overcast
2:56 AM 32.0 °F 27.5 °F 28.4 °F 87% 29.95 in 4.0 mi SSE 4.6 mph - N/A   Overcast
3:16 AM 32.0 °F 27.5 °F 28.4 °F 87% 29.94 in 10.0 mi SE 4.6 mph - N/A   Overcast
3:36 AM 33.8 °F - 28.4 °F 81% 29.94 in 10.0 mi Calm Calm - N/A   Overcast
3:56 AM 33.8 °F 29.6 °F 30.2 °F 87% 29.93 in 10.0 mi East 4.6 mph - N/A   Overcast
4:16 AM 37.4 °F 32.8 °F 30.2 °F 75% 29.93 in 10.0 mi North 5.8 mph - N/A   Overcast
4:36 AM 42.8 °F 33.8 °F 33.8 °F 70% 29.93 in 10.0 mi West 21.9 mph 29.9 mph N/A   Overcast
4:56 AM 42.8 °F 33.3 °F 33.8 °F 70% 29.93 in 10.0 mi West 24.2 mph 32.2 mph N/A   Overcast
5:16 AM 42.8 °F 33.3 °F 35.6 °F 76% 29.94 in 8.0 mi West 24.2 mph 41.4 mph N/A   Overcast
5:36 AM 42.8 °F 32.1 °F 33.8 °F 70% 29.94 in 10.0 mi West 31.1 mph 36.8 mph N/A   Overcast
5:56 AM 41.0 °F 30.0 °F 35.6 °F 81% 29.95 in 6.0 mi West 28.8 mph 39.1 mph N/A   Overcast
6:16 AM 41.0 °F 30.2 °F 35.6 °F 81% 29.96 in 6.0 mi West 27.6 mph 40.3 mph N/A   Overcast
6:36 AM 41.0 °F 30.0 °F 35.6 °F 81% 29.97 in 9.0 mi West 28.8 mph 40.3 mph N/A   Overcast
6:56 AM 42.8 °F 32.1 °F 35.6 °F 76% 29.98 in 10.0 mi West 31.1 mph 41.4 mph N/A   Overcast
7:16 AM 41.0 °F 30.9 °F 35.6 °F 81% 29.99 in 7.0 mi West 24.2 mph 38.0 mph N/A   Overcast
7:36 AM 41.0 °F 30.9 °F 35.6 °F 81% 30.00 in 8.0 mi West 24.2 mph 33.4 mph N/A   Overcast
7:56 AM 41.0 °F 32.5 °F 35.6 °F 81% 30.02 in 6.0 mi West 17.3 mph 28.8 mph N/A   Overcast
8:16 AM 41.0 °F 33.9 °F 35.6 °F 81% 30.03 in 9.0 mi West 12.7 mph 24.2 mph N/A   Overcast
8:36 AM 41.0 °F 33.5 °F 33.8 °F 76% 30.04 in 10.0 mi WNW 13.8 mph 26.5 mph N/A   Overcast
8:56 AM 41.0 °F 32.5 °F 33.8 °F 76% 30.05 in 10.0 mi WNW 17.3 mph 31.1 mph N/A   Overcast
9:16 AM 42.8 °F 33.8 °F 33.8 °F 70% 30.07 in 10.0 mi West 21.9 mph 32.2 mph N/A   Overcast
9:36 AM 42.8 °F 33.3 °F 33.8 °F 70% 30.08 in 10.0 mi West 24.2 mph 35.7 mph N/A   Overcast
9:56 AM 42.8 °F 34.3 °F 33.8 °F 70% 30.09 in 10.0 mi West 19.6 mph 28.8 mph N/A   Mostly Cloudy
10:16 AM 42.8 °F 34.3 °F 32.0 °F 66% 30.10 in 10.0 mi West 19.6 mph 29.9 mph N/A   Overcast
10:36 AM 42.8 °F 35.1 °F 32.0 °F 66% 30.10 in 10.0 mi West 16.1 mph 34.5 mph N/A   Overcast
10:56 AM 42.8 °F 33.5 °F 32.0 °F 66% 30.11 in 10.0 mi West 23.0 mph 36.8 mph N/A   Overcast
11:16 AM 42.8 °F 33.5 °F 30.2 °F 61% 30.12 in 10.0 mi West 23.0 mph 35.7 mph N/A   Overcast
11:36 AM 42.8 °F 35.8 °F 30.2 °F 61% 30.12 in 10.0 mi West 13.8 mph 31.1 mph N/A   Overcast
12:16 PM 42.8 °F 36.6 °F 30.2 °F 61% 30.14 in 10.0 mi WSW 11.5 mph 34.5 mph N/A   Overcast
12:36 PM 42.8 °F 34.3 °F 30.2 °F 61% 30.15 in 10.0 mi West 19.6 mph 32.2 mph N/A   Overcast
12:56 PM 42.8 °F 34.5 °F 30.2 °F 61% 30.16 in 10.0 mi WSW 18.4 mph 23.0 mph N/A   Overcast
1:16 PM 42.8 °F 35.8 °F 30.2 °F 61% 30.16 in 10.0 mi West 13.8 mph 29.9 mph N/A   Overcast
1:36 PM 42.8 °F 35.4 °F 30.2 °F 61% 30.18 in 10.0 mi West 15.0 mph 32.2 mph N/A   Overcast
2:16 PM 42.8 °F 36.6 °F 30.2 °F 61% 30.18 in 10.0 mi WSW 11.5 mph 26.5 mph N/A   Overcast
2:36 PM 42.8 °F 35.1 °F 30.2 °F 61% 30.18 in 10.0 mi WSW 16.1 mph 21.9 mph N/A   Overcast
2:56 PM 42.8 °F 36.2 °F 30.2 °F 61% 30.18 in 10.0 mi WSW 12.7 mph 20.7 mph N/A   Overcast
3:16 PM 42.8 °F 37.0 °F 30.2 °F 61% 30.18 in 10.0 mi West 10.4 mph 20.7 mph N/A   Overcast
3:36 PM 42.8 °F 34.5 °F 28.4 °F 57% 30.18 in 10.0 mi West 18.4 mph 24.2 mph N/A   Overcast
3:56 PM 42.8 °F 36.2 °F 28.4 °F 57% 30.17 in 10.0 mi West 12.7 mph 27.6 mph N/A   Overcast
4:16 PM 41.0 °F 30.7 °F 28.4 °F 61% 30.19 in 10.0 mi West 25.3 mph 33.4 mph N/A   Overcast
4:36 PM 41.0 °F 31.9 °F 28.4 °F 61% 30.19 in 10.0 mi West 19.6 mph 26.5 mph N/A   Mostly Cloudy
4:56 PM 42.8 °F 32.5 °F 26.6 °F 53% 30.17 in 10.0 mi West 28.8 mph 35.7 mph N/A   Clear
5:16 PM 41.0 °F 31.1 °F 28.4 °F 61% 30.15 in 10.0 mi WNW 23.0 mph 35.7 mph N/A   Clear
5:36 PM 41.0 °F 33.1 °F 26.6 °F 57% 30.14 in 10.0 mi WNW 15.0 mph 28.8 mph N/A   Clear
5:56 PM 41.0 °F 34.3 °F 26.6 °F 57% 30.16 in 10.0 mi WNW 11.5 mph 33.4 mph N/A   Clear
6:16 PM 41.0 °F 34.7 °F 26.6 °F 57% 30.18 in 10.0 mi WSW 10.4 mph 23.0 mph N/A   Partly Cloudy
6:36 PM 41.0 °F 35.8 °F 26.6 °F 57% 30.18 in 10.0 mi West 8.1 mph 18.4 mph N/A   Partly Cloudy
6:56 PM 41.0 °F 33.5 °F 26.6 °F 57% 30.17 in 10.0 mi NNW 13.8 mph 24.2 mph N/A   Mostly Cloudy
7:16 PM 41.0 °F 32.8 °F 26.6 °F 57% 30.17 in 10.0 mi West 16.1 mph 20.7 mph N/A   Scattered Clouds
7:36 PM 41.0 °F 32.5 °F 28.4 °F 61% 30.16 in 10.0 mi WSW 17.3 mph - N/A   Mostly Cloudy
7:56 PM 41.0 °F 33.1 °F 28.4 °F 61% 30.17 in 10.0 mi WSW 15.0 mph 20.7 mph N/A   Overcast
8:16 PM 41.0 °F 34.7 °F 28.4 °F 61% 30.17 in 10.0 mi SSW 10.4 mph - N/A   Mostly Cloudy
8:36 PM 41.0 °F 34.7 °F 26.6 °F 57% 30.16 in 10.0 mi NW 10.4 mph - N/A   Mostly Cloudy
8:56 PM 39.2 °F 35.0 °F 26.6 °F 61% 30.16 in 10.0 mi WNW 5.8 mph - N/A   Clear
9:16 PM 39.2 °F 32.5 °F 28.4 °F 65% 30.16 in 10.0 mi West 10.4 mph - N/A   Clear
9:36 PM 39.2 °F 33.0 °F 26.6 °F 61% 30.15 in 10.0 mi West 9.2 mph - N/A   Clear
9:56 PM 39.2 °F 32.0 °F 26.6 °F 61% 30.14 in 10.0 mi West 11.5 mph - N/A   Clear
10:16 PM 37.4 °F 32.8 °F 26.6 °F 65% 30.15 in 10.0 mi ESE 5.8 mph - N/A   Clear
10:36 PM 39.2 °F 33.0 °F 24.8 °F 56% 30.14 in 10.0 mi WSW 9.2 mph - N/A   Clear
10:56 PM 39.2 °F 34.2 °F 26.6 °F 61% 30.12 in 10.0 mi WSW 6.9 mph - N/A   Clear
11:16 PM 37.4 °F 32.8 °F 24.8 °F 60% 30.12 in 10.0 mi North 5.8 mph - N/A   Clear
11:36 PM 37.4 °F 33.8 °F 24.8 °F 60% 30.11 in 10.0 mi North 4.6 mph - N/A   Clear
11:56 PM 39.2 °F 37.0 °F 26.6 °F 61% 30.11 in 10.0 mi North 3.5 mph - N/A   Clear